www.pogodaiklimat.ru

Погода и климат >> Архив погоды >> Австралия >> Западная Австралия >> Микатарра


ПОГОДА в Микатарре

  • Прогноз погоды в Микатарре
  • Монитор погоды в Микатарре

АРХИВ ПОГОДЫ в Микатарре

Время (UTC), дата Ветер
(напр.,м/с)
 
Видим.   Явления Облачность Т
(С)
Тd
(С)
f
(%)
Тe
(С)
Тes
(С)
Комфортность P
(гПа)
Po
(гПа)
Тmin
(С)
Tmax
(С)
R
(мм)
R24
(мм)
S
(см)
07 12.08 З 3 н/о н/о +24.2 -4.0 15 +22 +22 комфорт 1019.7 959.5
09 12.08 С 2 н/о н/о +23.8 -4.4 15 +22 +22 комфорт 1019.8 959.6
10 12.08 штиль 0 н/о н/о +20.6 -3.8 19 +20 +20 1020.2 960.0
12 12.08 В 3 н/о н/о +16.5 -3.0 26 +17 +17 1021.4 961.1
13 12.08 СВ 3 н/о н/о +15.6 -3.3 27 +15 +15 1021.1 960.9 +25.2
15 12.08 В 4 н/о н/о +14.8 -3.5 28 +14 +14 1020.2 960.0
16 12.08 В 3 н/о н/о +14.4 -3.9 28 +14 +14 1019.7 959.5
18 12.08 С 3 н/о н/о +12.6 -4.1 31 +12 +12 1018.9 958.8
19 12.08 СВ 3 н/о н/о +12.7 -4.0 31 +12 +12 1019.0 958.9
21 12.08 СВ 4 н/о н/о +13.3 -3.9 30 +12 +12 1018.8 958.7
22 12.08 СВ 4 н/о н/о +13.7 -4.0 29 +13 +13 1019.0 958.9
00 13.08 С 5 н/о н/о +16.0 -4.0 25 +15 +15 1019.8 959.6
01 13.08 С 7 н/о 9/0
[]
+19.1 -4.4 20 +18 +19 1019.7 959.5 +12.1
03 13.08 С 8 н/о н/о +23.7 -4.4 15 +22 +22 комфорт 1018.4 958.3
04 13.08 С 7 н/о 9/0
[]
+25.7 -3.8 14 +23 +25 комфорт 1017.5 957.5
09 13.08 З 6 н/о н/о +25.6 -1.2 17 +24 +24 комфорт 1016.1 956.2
10 13.08 З 4 н/о 6/0
[]
+23.7 -2.0 18 +22 +22 комфорт 1016.4 956.4
12 13.08 ЮЗ 3 н/о н/о +21.4 -1.8 21 +21 +21 комфорт 1017.1 957.1
13 13.08 ЮЗ 3 н/о 10/0
[]
+20.6 -1.2 23 +21 +21 комфорт 1017.3 957.3 +28.6
15 13.08 Ю 3 н/о н/о +18.6 -1.3 26 +19 +19 1016.7 956.7
16 13.08 В 1 н/о 10/0
[]
+18.1 -0.7 28 +19 +19 1016.2 956.3
18 13.08 ЮВ 2 н/о н/о +16.2 -0.5 32 +16 +16 1015.3 955.4
19 13.08 СВ 3 н/о 10/0
[]
+16.4 -0.3 32 +16 +16 1015.0 955.1
21 13.08 С 2 н/о н/о +16.6 +0.7 34 +17 +17 1015.1 955.2
22 13.08 З 4 н/о 9/0
[]
+16.8 +0.5 33 +16 +16 1015.9 956.0
00 14.08 С 2 н/о н/о +16.0 +6.7 54 +16 +16 1016.7 956.7
01 14.08 ЮЗ 3 н/о в посл. час дождь со снегом 9/0
[]
+16.6 +7.0 53 +17 +19 1016.7 956.7 +15.3
03 14.08 СЗ 6 н/о н/о +19.9 +7.9 46 +21 +21 комфорт 1016.2 956.3
04 14.08 СЗ 7 н/о 9/0
[]
+21.5 +8.1 42 +23 +25 комфорт 1015.3 955.4
06 14.08 З 7 н/о н/о +22.3 +6.1 35 +23 +23 комфорт 1014.0 954.2
07 14.08 СЗ 7 н/о 10/0 2000 м
[]
+22.0 +5.8 35 +23 +24 комфорт 1013.9 954.1
09 14.08 З 8 н/о н/о +20.7 +7.7 43 +21 +21 комфорт 1014.4 954.6
10 14.08 З 6 н/о н/о +17.9 +9.8 59 +17 +17 1015.5 955.6
12 14.08 З 3 н/о н/о +16.4 +8.9 61 +16 +16 1017.3 957.3
13 14.08 ЮЗ 3 н/о 3/3 1000 м
[]
+15.3 +8.8 65 +15 +15 1017.6 957.6 +23.5
15 14.08 ЮЗ 3 н/о н/о +13.7 +9.0 73 +13 +13 1018.4 958.3
16 14.08 ЮЗ 4 н/о 9/9 1000 м
[]
+13.6 +9.5 76 +12 +12 1018.6 958.5
18 14.08 ЮЗ 6 н/о н/о +12.2 +7.3 72 +10 +10 1018.8 958.7
19 14.08 ЮЗ 5 н/о в посл. час дождь 10/0 2000 м
[]
+11.7 +7.4 75 +9 +9 1018.8 958.7
21 14.08 Ю 3 н/о н/о +9.9 +7.2 83 +8 +8 1018.7 958.6
22 14.08 Ю 3 н/о 1/1 300 м
[]
+9.3 +7.3 87 +7 +7 1019.4 959.3
00 15.08 Ю 6 н/о н/о +10.4 +6.9 79 +7 +7 1020.9 960.7
01 15.08 Ю 7 н/о н/о +11.8 +5.2 64 +9 +9 1021.5 961.2 +8.8
03 15.08 Ю 6 н/о н/о +15.6 +3.4 44 +14 +14 1021.5 961.2
04 15.08 Ю 5 н/о н/о +16.5 +2.5 39 +16 +16 1020.8 960.6
06 15.08 Ю 6 н/о н/о +17.5 -4.4 22 +17 +17 1019.5 959.4
07 15.08 ЮЗ 6 н/о н/о +18.0 -1.3 27 +18 +18 1019.2 959.1
09 15.08 Ю 6 н/о н/о +17.2 -1.9 27 +16 +16 1019.4 959.3
10 15.08 Ю 5 н/о н/о +15.5 -2.4 29 +14 +14 1020.1 959.9
12 15.08 Ю 4 н/о н/о +13.1 +0.2 41 +12 +12 1021.9 961.6
13 15.08 Ю 3 н/о н/о +11.4 +0.2 46 +10 +10 1021.9 961.6 +18.8
15 15.08 Ю 3 н/о н/о +9.2 +0.1 53 +8 +8 1022.6 962.3
16 15.08 Ю 3 н/о н/о +7.8 +0.1 58 +6 +6 1022.5 962.2
18 15.08 Ю 3 н/о н/о +6.6 -0.1 62 +4 +4 1021.8 961.5
19 15.08 Ю 3 н/о н/о +5.8 -0.5 64 +3 +3 1021.4 961.1
21 15.08 В 3 н/о н/о +5.1 +0.1 70 +2 +2 1021.6 961.3
22 15.08 В 2 н/о н/о +3.9 -0.5 73 +2 +2 1021.7 961.4
00 16.08 Ю 1 н/о н/о +8.3 +1.9 64 +8 +8 1022.8 962.5
01 16.08 В 2 н/о н/о +12.6 +3.6 54 +12 +12 1022.7 962.4 +3.7
03 16.08 СВ 4 н/о н/о +15.8 +1.5 38 +15 +15 1022.1 961.8
04 16.08 С 3 н/о н/о +17.7 +2.1 35 +18 +18 1021.2 961.0
06 16.08 СЗ 2 н/о н/о +19.9 -1.2 24 +21 +21 комфорт 1019.5 959.4
07 16.08 СЗ 4 н/о н/о +20.0 -3.6 20 +20 +20 1019.3 959.2
09 16.08 З 4 н/о н/о +19.5 -4.0 20 +19 +19 1019.2 959.1
10 16.08 З 3 н/о н/о +17.6 -3.2 24 +18 +18 1019.2 959.1
12 16.08 З 3 н/о н/о +15.0 -4.3 26 +15 +15 1020.0 959.8
13 16.08 З 4 н/о н/о +15.1 -3.7 27 +14 +14 1020.3 960.1 +21.0
15 16.08 З 3 н/о н/о +12.7 -3.5 32 +12 +12 1020.0 959.8
16 16.08 З 3 н/о н/о +10.9 -3.9 35 +10 +10 1019.9 959.7
18 16.08 ЮЗ 6 н/о н/о +11.0 +1.8 53 +8 +8 1019.9 959.7
19 16.08 З 3 н/о н/о +10.0 +3.1 62 +8 +8 1019.7 959.5
21 16.08 ЮЗ 6 н/о н/о +11.0 +5.7 70 +8 +8 1020.3 960.1
22 16.08 Ю 5 н/о в посл. час дождь со снегом 10/10 600 м
[]
+9.3 +6.4 82 +6 +6 1021.5 961.2
00 17.08 Ю 7 н/о н/о +10.4 +5.0 69 +7 +7 1022.9 962.6
01 17.08 Ю 8 н/о н/о +11.9 +2.9 54 +9 +9 1023.7 963.3 +8.3
03 17.08 Ю 8 н/о н/о +14.4 +0.6 39 +12 +12 1023.9 963.5
04 17.08 Ю 7 н/о н/о +15.4 0.0 35 +14 +14 1023.4 963.0
06 17.08 ЮЗ 6 н/о н/о +16.0 -1.1 31 +15 +15 1022.4 962.1
07 17.08 Ю 7 н/о н/о +16.8 -1.8 28 +16 +16 1022.5 962.2
09 17.08 Ю 6 н/о н/о +16.4 -2.1 28 +15 +15 1023.5 963.1
10 17.08 Ю 6 н/о н/о +14.8 -2.1 31 +13 +13 1024.3 963.9
12 17.08 Ю 5 н/о н/о +12.7 -2.0 36 +11 +11 1026.2 965.7
13 17.08 Ю 5 н/о н/о +12.0 -1.9 38 +10 +10 1026.7 966.1 +18.2
15 17.08 Ю 5 н/о н/о +9.9 -1.8 44 +7 +7 1026.9 966.3
16 17.08 Ю 5 н/о н/о +8.9 -1.8 47 +6 +6 1027.1 966.5
18 17.08 Ю 5 н/о н/о +7.5 -2.0 51 +4 +4 1027.1 966.5
19 17.08 ЮВ 6 н/о н/о +7.3 -2.2 51 +4 +4 1027.0 966.4
21 17.08 ЮВ 4 н/о н/о +6.0 -2.3 55 +3 +3 1027.7 967.1
22 17.08 ЮВ 4 н/о н/о +5.8 -2.0 57 +2 +2 1028.3 967.6
00 18.08 ЮВ 6 н/о н/о +8.4 -1.4 50 +5 +5 1029.6 968.9
01 18.08 ЮВ 8 н/о н/о +10.3 -1.7 43 +7 +7 1030.1 969.3 +5.5
03 18.08 ЮВ 7 н/о н/о +13.7 -2.3 33 +12 +12 1030.0 969.2
04 18.08 В 8 н/о н/о +14.5 -4.2 27 +13 +13 1028.9 968.2
06 18.08 ЮВ 7 н/о н/о +16.7 -3.9 24 +16 +16 1027.4 966.8
07 18.08 ЮВ 7 н/о н/о +16.8 -4.4 23 +16 +16 1026.9 966.3
09 18.08 ЮВ 6 н/о н/о +16.6 -6.4 20 +16 +16 1027.2 966.6
10 18.08 ЮВ 5 н/о н/о +15.5 -6.7 21 +15 +15 1027.5 966.9
12 18.08 ЮВ 3 н/о н/о +11.8 -6.1 28 +11 +11 1029.0 968.3
13 18.08 ЮВ 4 н/о н/о +11.4 -5.1 31 +10 +10 1029.3 968.6 +17.9
15 18.08 ЮВ 4 н/о н/о +10.3 -4.5 35 +8 +8 1029.4 968.7
16 18.08 В 5 н/о н/о +9.3 -4.3 38 +7 +7 1029.5 968.8
18 18.08 ЮВ 5 н/о н/о +8.3 -4.2 41 +5 +5 1029.9 969.1
19 18.08 ЮВ 6 н/о н/о +8.3 -4.2 41 +5 +5 1029.6 968.9
21 18.08 В 5 н/о н/о +7.2 -4.2 44 +4 +4 1030.1 969.3
22 18.08 В 5 н/о н/о +7.0 -4.1 45 +4 +4 1031.1 970.3
00 19.08 В 7 н/о н/о +9.4 -3.2 41 +6 +6 1031.9 971.0
01 19.08 В 8 н/о н/о +12.1 -2.9 35 +9 +9 1032.0 971.1 +6.9
03 19.08 В 8 н/о н/о +16.0 -3.5 26 +15 +15 1031.9 971.0
06 19.08 В 7 н/о н/о +19.4 -5.5 18 +19 +19 1029.0 968.3
07 19.08 ЮВ 8 н/о н/о +19.8 -6.7 16 +19 +19 1028.6 967.9

 

Местоположение метеостанции Микатарра (Западная Австралия, Австралия): широта -26.61 долгота 118.55 высота над уровнем моря 519 м.

В архиве по умолчанию представлена погода в Микатарре за последнюю неделю. Архивные данные за месяц целиком и за предыдущие месяцы, начиная с января 2011 года, Вы можете получить, выбрав интересующий диапазон дат из раскрывающегося списка и нажав кнопку "Ввод!".


*Определитесь, кто Вы:
робот инопланетянин человек

Внимание! Время в таблицах - всемирное. Для получения местного времени необходимо прибавить поправку, которая равна 8 ч.

Смотрите также архив погоды в соседних городах и на ближайших метеорологических станциях:

Погода в Маунт Магнет аэропорту (Западная Австралия, Австралия) (181 км)
Погода в Леинстере (Западная Австралия, Австралия) (253 км)
Погода в Леонора аэропорту (Западная Австралия, Австралия) (372 км)
Погода в Ньюмане (Западная Австралия, Австралия) (378 км)
Погода в Мораве (Западная Австралия, Австралия) (381 км)
Погода в Параберду (Западная Австралия, Австралия) (391 км)
Погода в Лавертоне (Западная Австралия, Австралия) (441 км)
Погода в Дауоллину (Западная Австралия, Австралия) (448 км)
Погода в Джеральдтоне (Западная Австралия, Австралия) (451 км)
Погода в Шарк-Бэе (Западная Австралия, Австралия) (502 км)

Пояснения к столбцам:

Ветер - указаны скорость ветра в м/с - средняя за 10 мин, порывы в срок и между сроками (в фигурных скобках) и направление, откуда дует ветер: С - северный, СВ - северо-восточный, В - восточный, ЮВ - юго-восточный, Ю - южный, ЮЗ - юго-западный, З - западный, СЗ - северо-западный.
Видимость - горизонтальная дальность видимости в метрах или километрах. При видимости от 1 до 10 км при отсутствии осадков обычно наблюдается дымка, при ухудшении видимости до 1 км и менее - туман. В сухую погоду видимость может ухудшаться дымом, пылью или мглою.
Явления - указаны атмосферные явления, наблюдавшиеся в срок или в последний час перед сроком; фигурными скобками обозначены явления, наблюдавшиеся между сроками (за 1-3 часа до срока); квадратными скобками обозначены град или гололедные отложения с указанием их диаметра в мм.
Облачность - указаны через наклонную черту общая и нижняя облачность в баллах и высота нижней границы облаков в метрах; квадратными скобками обозначены формы облаков: Ci - перистые, Cs - перисто-слоистые, Cc - перисто-кучевые, Ac - высококучевые, As - высокослоистые, Sc - слоисто-кучевые, Ns - слоисто-дождевые, Cu - кучевые, Cb - кучево-дождевые. Подробнее классификацию облаков см. в Атласе облаков (PDF).
T - Температура воздуха - температура, измеренная на высоте 2 м над землей.
Td - Температура точки росы - температура, при понижении до которой содержащийся в воздухе водяной пар достигнет насыщения.
f - Относительная влажность воздуха - влажноcть воздуха, измеренная на высоте 2 м над землей.
Te - Эффективная температура - температура, которую ощущает одетый по сезону человек в тени. Характеристика душности погоды. При расчете учитывается влияние влажности воздуха и скорости ветра на теплоощущения человека.
Tes - Эффективная температура на солнце - температура, которую ощущает человек, с поправкой на солнечный нагрев. Характеристика знойности погоды. Зависит от высоты солнца над горизонтом, облачности и скорости ветра. Ночью, в пасмурную погоду, а также при ветре 12 м/с и более поправка равна нулю.
P - Атмосферное давление - приведенное к уровню моря атмосферное давление.
Po - Атмосферное давление - измеренное на уровне метеостанции атмосферное давление.
Tmin - Минимальная температура - минимум температуры воздуха на высоте 2 м над землей.
Tmax - Максимальная температура - максимум температуры воздуха на высоте 2 м над землей.
R - Количество осадков - Количество выпавших осадков за период времени, мм. При наведении курсора мыши на число - период времени, за который выпало указанное количество осадков.
R24 - Количество осадков - Количество выпавших осадков за 24 часа, мм.
S - Снежный покров - Высота снежного покрова, см. При наведении курсора мыши на число - состояние снежного покрова и степень покрытия местности в баллах.